Location: Bonneuil
(46.1010°N, 2.9693°E)
Time: 02:46:50
(UTC+00:00)

NOSS 3-4 (A) - Pass Details

Date: 09 April 2020
Orbit: 895 x 1317 km, 63.4° (Epoch: 27 May)

Event Time Altitude Azimuth Distance (km) Brightness Sun altitude
Rises 19:25:00 0° 320° (NW) 3,830 7.9 -10.3°
Reaches altitude 10° 19:27:32 10° 319° (NW) 2,931 7.1 -10.7°
Maximum altitude 19:34:33 76° 235° (SW) 1,203 4.0 -11.8°
Drops below altitude 10° 19:42:16 10° 151° (SSE) 3,214 5.7 -13.0°
Enters shadow 19:42:34 - 151° (SSE) 3,318 5.8 -13.0°
